| time (UTC) | temp F | wind direction | speed MPH | gust MPH | rain 1hr in | rain 24hr in | rain mn in | humidity % | barometer mb |
| 20260504214607 | 76 | 291 | 2.0 | 12.0 | 0.00 | 0.00 | 0.00 | 49 | 1008.9 |
| 20260504213035 | 76 | 286 | 3.0 | 11.0 | 0.00 | 0.00 | 0.00 | 49 | 1009.1 |
| 20260504211536 | 76 | 310 | 3.0 | 10.0 | 0.00 | 0.00 | 0.00 | 48 | 1009.2 |
| 20260504204535 | 78 | 296 | 2.0 | 10.0 | 0.00 | 0.00 | 0.00 | 45 | 1009.6 |
| 20260504203033 | 79 | 314 | 2.0 | 11.0 | 0.00 | 0.00 | 0.00 | 43 | 1009.8 |
| 20260504200032 | 77 | 292 | 3.0 | 10.0 | 0.00 | 0.00 | 0.00 | 46 | 1010.0 |
| 20260504193033 | 77 | 305 | 2.0 | 9.0 | 0.00 | 0.00 | 0.00 | 47 | 1010.2 |
| 20260504190037 | 76 | 284 | 1.0 | 8.0 | 0.00 | 0.00 | 0.00 | 48 | 1010.5 |
| 20260504183031 | 74 | 297 | 2.0 | 7.0 | 0.00 | 0.00 | 0.00 | 50 | 1010.6 |
| 20260504181535 | 73 | 294 | 2.0 | 9.0 | 0.00 | 0.00 | 0.00 | 51 | 1010.7 |
| 20260504180036 | 72 | 295 | 2.0 | 9.0 | 0.00 | 0.00 | 0.00 | 52 | 1010.7 |
| 20260504174536 | 72 | 296 | 3.0 | 16.0 | 0.00 | 0.00 | 0.00 | 53 | 1010.7 |
| 20260504173034 | 71 | 301 | 3.0 | 8.0 | 0.00 | 0.00 | 0.00 | 54 | 1010.7 |
| 20260504171607 | 70 | 302 | 3.0 | 13.0 | 0.00 | 0.00 | 0.00 | 55 | 1010.7 |
| 20260504081532 | 57 | 157 | 0.0 | 2.0 | 0.00 | 0.00 | 0.00 | 69 | 1010.1 |
| 20260504080107 | 58 | 170 | 1.0 | 3.0 | 0.00 | 0.00 | 0.00 | 69 | 1010.2 |
| 20260504044531 | 64 | 185 | 0.0 | 3.0 | 0.00 | 0.00 | 0.00 | 60 | 1009.1 |
| 20260504043035 | 64 | 291 | 0.0 | 0.0 | 0.00 | 0.00 | 0.00 | 60 | 1008.9 |
| 20260504041537 | 65 | 292 | 0.0 | 0.0 | 0.00 | 0.00 | 0.00 | 58 | 1008.6 |
| 20260504034607 | 69 | 336 | 0.0 | 0.0 | 0.00 | 0.00 | 0.00 | 49 | 1008.1 |
| 20260504031537 | 75 | 225 | 0.0 | 2.0 | 0.00 | 0.00 | 0.00 | 39 | 1007.7 |
| 20260504030035 | 76 | 171 | 0.0 | 2.0 | 0.00 | 0.00 | 0.00 | 37 | 1007.6 |
| 20260504024531 | 77 | 251 | 0.0 | 2.0 | 0.00 | 0.00 | 0.00 | 36 | 1007.5 |
| 20260504023030 | 78 | 304 | 0.0 | 1.0 | 0.00 | 0.00 | 0.00 | 35 | 1007.6 |
| 20260504021533 | 80 | 157 | 0.0 | 2.0 | 0.00 | 0.00 | 0.00 | 34 | 1007.7 |
| 20260504014535 | 83 | 215 | 0.0 | 2.0 | 0.00 | 0.00 | 0.00 | 32 | 1008.0 |
| 20260504013035 | 84 | 12 | 0.0 | 4.0 | 0.00 | 0.00 | 0.00 | 31 | 1008.1 |
| 20260504011607 | 85 | 354 | 0.0 | 4.0 | 0.00 | 0.00 | 0.00 | 29 | 1008.3 |
| 20260504004535 | 86 | 9 | 0.0 | 4.0 | 0.00 | 0.00 | 0.00 | 29 | 1008.5 |
| 20260504001531 | 86 | 56 | 0.0 | 6.0 | 0.00 | 0.00 | 0.00 | 29 | 1008.8 |
| 20260504000031 | 86 | 9 | 0.0 | 6.0 | 0.00 | 0.00 | 0.00 | 29 | 1008.9 |
| 20260503234535 | 86 | 74 | 0.0 | 3.0 | 0.00 | 0.00 | 0.00 | 28 | 1009.1 |
| 20260503233142 | 86 | 48 | 0.0 | 4.0 | 0.00 | 0.00 | 0.00 | 29 | 1009.3 |
| 20260503231536 | 86 | 28 | 0.0 | 4.0 | 0.00 | 0.00 | 0.00 | 29 | 1009.5 |
| 20260503223033 | 86 | 101 | 1.0 | 4.0 | 0.00 | 0.00 | 0.00 | 27 | 1010.3 |
| 20260503221535 | 86 | 47 | 1.0 | 6.0 | 0.00 | 0.00 | 0.00 | 28 | 1010.6 |
| 20260503220107 | 86 | 174 | 1.0 | 5.0 | 0.00 | 0.00 | 0.00 | 29 | 1010.7 |